Regional Weather Roundup
Issued by NWS Boston, MA

Current Version | Previous Version | Text Only | Print | Product List | Glossary On
Versions: 1 2 3 4 5 6 7 8 9 10 11 12 13 14 15 16 17 18 19 20 21 22 23 24 25 26 27 28
000 ASUS41 KBOX 300710 RWRBOX REGIONAL WEATHER ROUNDUP NATIONAL WEATHER SERVICE TAUNTON MA 300 AM EDT FRI SEP 30 2016 NOTE: "FAIR" INDICATES FEW OR NO CLOUDS BELOW 12,000 FEET WITH NO SIGNIFICANT WEATHER AND/OR OBSTRUCTIONS TO VISIBILITY. MAZALL-300800- EASTERN MASSACHUSETTS CITY SKY/WX TMP DP RH WIND PRES REMARKS BOSTON MOCLDY 58 49 72 NE17 30.47S BEVERLY PTCLDY 55 47 74 VRB7 30.47F LAWRENCE CLOUDY 48 46 93 N6 30.50F BEDFORD CLOUDY 48 45 89 N3 30.47S BLUE HILL N/A 54 47 77 E16G26 30.44S NORWOOD CLOUDY 58 47 66 NE12G17 30.45S MARSHFIELD MOCLDY 59 52 77 NE14G21 30.44F PLYMOUTH CLOUDY 58 50 75 E9 30.44F TAUNTON CLOUDY 58 49 72 VRB5 30.43F NEW BEDFORD CLOUDY 59 51 75 NE10 30.42F $$ MAZALL-300800- CAPE COD AND THE ISLANDS CITY SKY/WX TMP DP RH WIND PRES REMARKS FALMOUTH CLOUDY 57 52 82 NE13 30.47S HYANNIS PTCLDY 57 51 80 NE7 30.40F CHATHAM MOCLDY 59 54 83 NE13 30.42F PROVINCETOWN MOCLDY 58 52 80 E12 30.45S NANTUCKET PTCLDY 60 54 80 NE16 30.38F MARTHAS VNYRD CLOUDY 60 53 77 NE20G26 30.39F $$ MAZALL-300800- CENTRAL AND WESTERN MASSACHUSETTS CITY SKY/WX TMP DP RH WIND PRES REMARKS WORCESTER PTCLDY 49 45 86 NE12G20 30.45S FITCHBURG PTCLDY 51 46 83 N6 30.50S ORANGE MOCLDY 48 47 96 NW5 30.47F SPRINGFIELD CLOUDY 51 47 84 NE7 30.44F WESTFIELD CLOUDY 52 48 86 N9 30.45F NORTH ADAMS CLOUDY 53 42 66 E12G21 30.46S PITTSFIELD PTCLDY 50 43 77 NE12 30.43F $$ RIZALL-300800- RHODE ISLAND CITY SKY/WX TMP DP RH WIND PRES REMARKS PROVIDENCE CLOUDY 56 48 74 NE12 30.43F NEWPORT MOCLDY 57 51 80 NE12G22 30.40F BLOCK ISLAND CLOUDY 60 54 80 NE20G31 30.36F SMITHFIELD CLOUDY 55 47 74 NE7 30.44F WESTERLY MOCLDY 58 49 72 NE8G21 30.39F $$ CTZALL-300800- CONNECTICUT CITY SKY/WX TMP DP RH WIND PRES REMARKS BRADLEY INTL CLOUDY 53 47 79 N10 30.43F HARTFORD CLOUDY 55 49 80 N7 30.42F BRIDGEPORT CLOUDY 59 49 69 NE18G26 30.36F DANBURY MOCLDY 54 47 77 NE15G23 30.38F GROTON MOCLDY 59 50 72 NE15 30.37F NEW HAVEN MOCLDY 57 49 74 NE15G22 30.37F CHESTER FAIR 55 48 76 NE12G18 30.38F MERIDEN MOCLDY 57 48 72 NE9 30.40F WILLIMANTIC CLOUDY 56 50 80 NE12G20 30.42F OXFORD N/A 54 45 71 NE9G23 30.39F $$ MEZ002-015-021-024-NHZ003-005-008-011-012-014-VTZ005-008-300800- NORTHERN NEW ENGLAND CITY SKY/WX TMP DP RH WIND PRES REMARKS PORTLAND ME PTCLDY 47 39 74 N3 30.53F BANGOR ME CLOUDY 39 36 89 N3 30.55F CONCORD NH MOCLDY 45 42 89 NW3 30.51F MANCHESTER NH MOCLDY 49 44 83 N6 30.49F NASHUA NH MOCLDY 49 46 90 NW5 30.50F PORTSMOUTH NH MOCLDY 49 45 84 N5 30.49F JAFFREY NH PTCLDY 47 44 90 CALM 30.49F KEENE NH MOCLDY 45 44 97 CALM 30.50F BURLINGTON VT CLOUDY 56 43 61 SE7 30.47F MT. WASHINGTON MOCLDY 46 -8 10 E10 N/A $$ NYZ052-076-300800- EASTERN NEW YORK CITY SKY/WX TMP DP RH WIND PRES REMARKS ALBANY CLOUDY 56 42 59 NE8 30.44F NEW YORK CITY CLOUDY 61 54 77 NE26G35 30.31F $$ ANZALL-300800- MARINE OBSERVATIONS STATION/POSITION TIME TEMP WIND PRES VSBY WAVE AIR SEA DIR/SP/G HT/PER (UTC) (F) (DEG/KT/KT) (MB) (MI) (FT/S) BOSTON BUOY 0650 59 61 60/ 17/ 21 1031.2R 8/ 8 BUZZARDS BAY 0600 59 50/ 24/ 25 1029.5F NANTUCKET SOUND 0650 60 62 50/ 19/ 23 1028.7F 3/ 4 MASS BAY-STELLWA 0604 59 60 60/ 19/ 23 1031.1F 1 7/8 7/ 8 ISLE OF SHOALS 0600 57 60/ 19/ 21 1032.1F S OF BLOCK IS 0625 65 N/A 8/ 6 $$ ......................KEY......................... SKY/WX - SKY CONDITION/PRESENT WEATHER TMP - TEMPERATURE IN FAHRENHEIT DWPT - DEWPOINT IN FAHRENHEIT RH - RELATIVE HUMIDITY IN PERCENT WIND - DIRECTION AND SPEED IN MPH PRES - MEAN SEA LEVEL PRESSURE IN INCHES OF HG WCI - WIND CHILL INDEX VSB - VISIBILITY IN MILES HX - HEAT INDEX TC - TEMPERATURE IN CELSIUS VRB - VARIABLE WIND DIRECTION N/A - NOT AVAILABLE

USA.gov is the U.S. government's official web portal to all federal, state and local government web resources and services.